C/2019 T2 ( Lemmon )

Japanese version
Home page
Updated on March 14, 2022

---------------------------------------------------------------------

* Profile

Discovery Date October 9, 2019
Magnitude 20.6 mag
Discoverer Mt. Lemmon Survey

* Pictures

* Orbital Elements

Epoch 2022 Jan. 21.0 TT = JDT 2459600.5
T 2021 Apr. 22.32868 TT                                 Rudenko
q   2.6461651            (2000.0)            P               Q
z  +0.0004418      Peri.  239.40286     +0.33365488     -0.86105157
 +/-0.0000004      Node   155.64321     -0.13754795     +0.35825464
e   0.9988309      Incl.  111.48852     -0.93260655     -0.36089308
From 774 observations 2019 Aug. 26-2022 Jan. 11, mean residual 0".7.

* Finding Charts

* Magnitudes Graph

        m1 = 9.0 + 5 log d + 10.0 log r(t + 80)

---------------------------------------------------------------------

The orbital elements are published on M.P.E.C. 2022-C56.
The charts are made with StellaNavigator Ver.10 (AstroArts).
The magnitudes graphs are made with Comet for Windows.

---------------------------------------------------------------------

Copyright(C) Seiichi Yoshida (comet@aerith.net). All rights reserved.